Weather History for KAEJ - June, 2014

Change the Weather History Date:

Thursday, June 12, 2014

  Actual Average (KLXV) Record (KLXV)
Temperature  
Mean Temperature 58 °F -  
Max Temperature 76 °F 64 °F - ()
Min Temperature 39 °F 32 °F - ()
Degree Days  
Heating Degree Days 8 17  
Month to date heating degree days 219  
Since 1 June heating degree days 219  
Since 1 July heating degree days 10973  
Cooling Degree Days 0 0  
Month to date cooling degree days 0  
Year to date cooling degree days 0  
Since 1 June cooling degree days 0  
Growing Degree Days 8 (Base 50)    
Moisture  
Dew Point 33 °F    
Average Humidity 46    
Maximum Humidity 84    
Minimum Humidity 10    
Precipitation  
Precipitation 0.00 in 0.03 in - ()
Month to date precipitation 0.35  
Year to date precipitation 4.48  
Sea Level Pressure  
Sea Level Pressure 30.25 in    
Wind  
Wind Speed 7 mph (WSW)    
Max Wind Speed 16 mph    
Max Gust Speed 34 mph    
Visibility 10 miles    
Events      
T = Trace of Precipitation, MM = Missing Value Source: NWS Daily Summary

Daily Weather History Graph

Daily Weather History Graph

Search for Another Location

Airport or City:

Trip Planner

Search our weather history database for the weather conditions in past years. The results will help you decide how hot, cold, wet, or windy it might be!

Date:

Astronomy

Jun. 12, 2014 Rise Set
Actual Time 5:38 AM MDT 8:30 PM MDT
Civil Twilight 5:06 AM MDT 9:01 PM MDT
Nautical Twilight 4:26 AM MDT 9:42 PM MDT
Astronomical Twilight 3:40 AM MDT 10:28 PM MDT
Moon 8:05 PM MDT (6/12) 5:21 AM MDT (6/12)
Length of Visible Light 15h 55m
Length of Day
14h 51m
Full, 100% of the Moon is Illuminated
Jun 12
Full
Jun 12
Full
Jun 19
Last Quarter
Jun 27
New
Jul 5
First Quarter

Hourly Weather History & Observations

Time (MDT) Temp. Windchill Dew Point Humidity Pressure Visibility Wind Dir Wind Speed Gust Speed Precip Events Conditions
12:15 AM 54.5 °F - 34.7 °F 47% 30.21 in 10.0 mi NNW 8.1 mph - N/A   Overcast
12:35 AM 54.5 °F - 34.7 °F 47% 30.20 in 10.0 mi NNW 5.8 mph - N/A   Overcast
12:55 AM 52.9 °F - 35.8 °F 52% 30.20 in 10.0 mi NW 9.2 mph - N/A   Mostly Cloudy
1:15 AM 52.2 °F - 36.3 °F 55% 30.20 in 10.0 mi NW 15.0 mph 18.4 mph N/A   Scattered Clouds
1:35 AM 50.5 °F - 37.4 °F 61% 30.21 in 10.0 mi NW 16.1 mph - N/A   Clear
1:55 AM 50.0 °F - 37.8 °F 63% 30.22 in 10.0 mi NW 12.7 mph - N/A   Clear
2:15 AM 49.8 °F - 37.6 °F 63% 30.23 in 10.0 mi NW 6.9 mph - N/A   Clear
2:35 AM 48.6 °F - 37.4 °F 65% 30.23 in 10.0 mi NNW 5.8 mph - N/A   Clear
2:55 AM 47.5 °F - 37.4 °F 68% 30.24 in 10.0 mi WNW 5.8 mph - N/A   Clear
3:15 AM 46.4 °F 42.9 °F 37.0 °F 70% 30.25 in 10.0 mi West 6.9 mph - N/A   Clear
3:35 AM 45.5 °F 42.5 °F 37.2 °F 73% 30.25 in 10.0 mi NW 5.8 mph - N/A   Clear
3:55 AM 44.8 °F 43.3 °F 36.9 °F 74% 30.26 in 10.0 mi NW 3.5 mph - N/A   Clear
4:15 AM 41.4 °F 37.6 °F 35.1 °F 78% 30.26 in 10.0 mi West 5.8 mph - N/A   Clear
4:35 AM 42.1 °F - 36.1 °F 79% 30.27 in 10.0 mi Calm Calm - N/A   Clear
4:55 AM 40.5 °F - 34.9 °F 80% 30.28 in 10.0 mi Calm Calm - N/A   Clear
5:15 AM 39.4 °F 35.2 °F 34.9 °F 84% 30.28 in 10.0 mi WSW 5.8 mph - N/A   Clear
5:35 AM 39.4 °F 36.1 °F 34.5 °F 83% 30.29 in 10.0 mi West 4.6 mph - N/A   Mostly Cloudy
5:55 AM 40.8 °F 36.9 °F 34.5 °F 78% 30.29 in 10.0 mi WNW 5.8 mph - N/A   Overcast
6:15 AM 41.5 °F 39.6 °F 35.6 °F 79% 30.31 in 10.0 mi WNW 3.5 mph - N/A   Mostly Cloudy
6:35 AM 43.9 °F 41.3 °F 36.0 °F 74% 30.31 in 10.0 mi West 4.6 mph - N/A   Overcast
6:55 AM 44.1 °F 41.5 °F 35.1 °F 71% 30.31 in 10.0 mi WNW 4.6 mph - N/A   Overcast
7:15 AM 45.1 °F 42.0 °F 35.8 °F 70% 30.32 in 10.0 mi NW 5.8 mph - N/A   Overcast
7:35 AM 46.6 °F - 36.0 °F 67% 30.33 in 10.0 mi NW 4.6 mph - N/A   Overcast
8:35 AM 49.6 °F - 37.9 °F 64% 30.33 in 10.0 mi Calm Calm - N/A   Overcast
8:55 AM 51.1 °F - 39.4 °F 64% 30.33 in 10.0 mi ESE 4.6 mph - N/A   Overcast
9:15 AM 53.6 °F - 40.3 °F 61% 30.34 in 10.0 mi East 6.9 mph - N/A   Scattered Clouds
9:35 AM 54.1 °F - 41.0 °F 61% 30.33 in 10.0 mi ESE 8.1 mph - N/A   Clear
9:55 AM 55.9 °F - 39.4 °F 54% 30.32 in 10.0 mi SE 8.1 mph - N/A   Clear
10:15 AM 57.2 °F - 38.3 °F 49% 30.32 in 10.0 mi ESE 4.6 mph - N/A   Clear
10:35 AM 58.3 °F - 38.5 °F 48% 30.30 in 10.0 mi Calm Calm - N/A   Clear
10:55 AM 59.7 °F - 39.0 °F 46% 30.30 in 10.0 mi ENE 5.8 mph - N/A   Clear
11:15 AM 61.2 °F - 38.8 °F 44% 30.30 in 10.0 mi ESE 6.9 mph - N/A   Clear
11:35 AM 62.8 °F - 38.8 °F 41% 30.28 in 10.0 mi East 9.2 mph - N/A   Clear
11:55 AM 63.5 °F - 38.3 °F 39% 30.28 in 10.0 mi South 3.5 mph - N/A   Clear
12:15 PM 63.7 °F - 37.9 °F 39% 30.27 in 10.0 mi SSE 6.9 mph - N/A   Clear
12:35 PM 66.0 °F - 37.4 °F 35% 30.26 in 10.0 mi ESE 5.8 mph - N/A   Clear
12:55 PM 66.7 °F - 37.0 °F 33% 30.25 in 10.0 mi SSE 4.6 mph - N/A   Clear
1:15 PM 69.1 °F - 34.9 °F 28% 30.24 in 10.0 mi ESE 4.6 mph - N/A   Clear
1:35 PM 71.1 °F - 33.6 °F 25% 30.23 in 10.0 mi Calm Calm - N/A   Clear
1:55 PM 71.6 °F - 32.5 °F 24% 30.22 in 10.0 mi Calm Calm - N/A   Scattered Clouds
2:15 PM 72.0 °F - 27.5 °F 19% 30.21 in 10.0 mi North 6.9 mph - N/A   Scattered Clouds
2:35 PM 74.1 °F - 27.3 °F 18% 30.20 in 10.0 mi NW 5.8 mph - N/A   Scattered Clouds
2:55 PM 72.9 °F - 26.1 °F 18% 30.19 in 10.0 mi South 4.6 mph - N/A   Clear
3:15 PM 75.6 °F - 25.0 °F 15% 30.19 in 10.0 mi SE 6.9 mph - N/A   Clear
3:35 PM 74.3 °F - 22.1 °F 14% 30.18 in 10.0 mi South 5.8 mph - N/A   Scattered Clouds
3:55 PM 74.8 °F - 19.2 °F 12% 30.18 in 10.0 mi West 3.5 mph - N/A   Scattered Clouds
4:15 PM 76.1 °F - 15.3 °F 10% 30.18 in 10.0 mi WSW 13.8 mph 18.4 mph N/A   Scattered Clouds
4:35 PM 76.3 °F - 15.4 °F 10% 30.18 in 10.0 mi WNW 8.1 mph 21.9 mph N/A   Clear
4:55 PM 74.3 °F - 15.4 °F 11% 30.18 in 10.0 mi WSW 8.1 mph - N/A   Scattered Clouds
5:15 PM 75.0 °F - 17.6 °F 11% 30.18 in 10.0 mi North 5.8 mph 34.5 mph N/A   Scattered Clouds
5:35 PM 73.6 °F - 18.5 °F 12% 30.18 in 10.0 mi WNW 9.2 mph - N/A   Clear
5:55 PM 73.9 °F - 19.8 °F 13% 30.18 in 10.0 mi WSW 12.7 mph 17.3 mph N/A   Scattered Clouds
6:15 PM 71.8 °F - 18.1 °F 13% 30.19 in 10.0 mi West 13.8 mph 18.4 mph N/A   Scattered Clouds
6:35 PM 70.7 °F - 21.7 °F 16% 30.19 in 10.0 mi SW 11.5 mph - N/A   Scattered Clouds
6:55 PM 69.8 °F - 19.8 °F 15% 30.20 in 10.0 mi SW 9.2 mph - N/A   Scattered Clouds
7:15 PM 71.1 °F - 20.1 °F 15% 30.20 in 10.0 mi West 10.4 mph - N/A   Clear
7:35 PM 70.7 °F - 21.0 °F 15% 30.21 in 10.0 mi West 11.5 mph - N/A   Clear
7:55 PM 66.4 °F - 28.0 °F 24% 30.23 in 10.0 mi SSW 6.9 mph - N/A   Clear
8:15 PM 64.8 °F - 31.1 °F 28% 30.24 in 10.0 mi SW 5.8 mph - N/A   Clear
8:35 PM 63.0 °F - 39.2 °F 42% 30.24 in 10.0 mi South 6.9 mph 18.4 mph N/A   Clear
8:55 PM 61.2 °F - 41.4 °F 48% 30.25 in 10.0 mi SSE 12.7 mph 17.3 mph N/A   Clear
9:35 PM 59.0 °F - 41.5 °F 52% 30.26 in 10.0 mi ESE 4.6 mph - N/A   Clear
9:55 PM 57.2 °F - 41.9 °F 57% 30.27 in 10.0 mi ESE 6.9 mph - N/A   Scattered Clouds
10:15 PM 56.5 °F - 41.9 °F 58% 30.28 in 10.0 mi ESE 4.6 mph - N/A   Clear
10:35 PM 55.8 °F - 41.9 °F 60% 30.27 in 10.0 mi East 5.8 mph - N/A   Clear
10:55 PM 55.2 °F - 42.1 °F 61% 30.28 in 10.0 mi Calm Calm - N/A   Clear
11:15 PM 55.9 °F - 42.1 °F 60% 30.27 in 10.0 mi ESE 3.5 mph - N/A   Clear
11:35 PM 54.7 °F - 42.3 °F 63% 30.28 in 10.0 mi East 3.5 mph - N/A   Clear
11:55 PM 53.6 °F - 42.4 °F 66% 30.27 in 10.0 mi Calm Calm - N/A   Clear